KK6BXP Weather Reports


time (UTC)temp
F
wind
direction
speed
knots
gust
knots
rain 1hr
in
rain 24hr
in
rain mn
in
humidity
%
barometer
mb
20260506202011 75 269 3.5 7.8 0.00 0.00 0.00 58 1020.2
20260506201527 75 269 1.7 7.0 0.00 0.00 0.00 59 1020.2
20260506201001 74 269 0.9 7.0 0.00 0.00 0.00 59 1020.2
20260506200502 74 269 1.7 7.0 0.00 0.00 0.00 60 1020.2
20260506200010 74 269 0.0 5.2 0.00 0.00 0.00 59 1020.2
20260506195506 73 269 0.0 5.2 0.00 0.00 0.00 60 1020.3
20260506195006 73 269 0.9 6.1 0.00 0.00 0.00 60 1020.3
20260506194514 73 269 0.9 6.1 0.00 0.00 0.00 60 1020.5
20260506194007 73 269 0.9 5.2 0.00 0.00 0.00 60 1020.6
20260506193507 73 269 0.0 3.5 0.00 0.00 0.00 58 1020.6
20260506193019 73 269 0.0 5.2 0.00 0.00 0.00 58 1020.7
20260506192507 74 269 0.0 7.0 0.00 0.00 0.00 57 1020.8
20260506192007 74 269 4.3 7.0 0.00 0.00 0.00 56 1020.8
20260506191523 75 269 0.0 3.5 0.00 0.00 0.00 57 1020.8
20260506191007 75 269 0.0 2.6 0.00 0.00 0.00 56 1020.9
20260506190506 75 269 0.0 2.6 0.00 0.00 0.00 55 1021.0
20260506190024 75 269 0.0 2.6 0.00 0.00 0.00 54 1020.9
20260506185503 75 269 0.0 6.1 0.00 0.00 0.00 54 1020.8
20260506185006 76 269 0.0 6.1 0.00 0.00 0.00 53 1020.9
20260506184521 76 269 1.7 6.1 0.00 0.00 0.00 53 1020.8
20260506184003 76 269 0.0 1.7 0.00 0.00 0.00 56 1020.8
20260506183507 75 269 0.0 3.5 0.00 0.00 0.00 55 1020.8
20260506183018 75 269 0.9 3.5 0.00 0.00 0.00 54 1020.8
20260506182503 75 269 1.7 5.2 0.00 0.00 0.00 57 1020.8
20260506182007 74 269 0.0 5.2 0.00 0.00 0.00 57 1020.9
20260506181521 74 269 0.9 3.5 0.00 0.00 0.00 57 1020.9
20260506181008 73 269 0.0 3.5 0.00 0.00 0.00 58 1020.9
20260506180508 74 269 0.9 3.5 0.00 0.00 0.00 57 1020.9
20260506180028 74 269 1.7 3.5 0.00 0.00 0.00 57 1020.9
20260506175507 74 269 0.0 5.2 0.00 0.00 0.00 56 1020.9
20260506175009 74 269 1.7 5.2 0.00 0.00 0.00 59 1021.0
20260506174527 73 269 0.0 5.2 0.00 0.00 0.00 59 1021.1
20260506174012 72 269 0.9 6.1 0.00 0.00 0.00 61 1021.1
20260506173503 72 269 3.5 6.1 0.00 0.00 0.00 61 1021.1
20260506173016 71 269 0.0 5.2 0.00 0.00 0.00 63 1021.0
20260506172505 70 269 0.0 6.1 0.00 0.00 0.00 63 1021.0
20260506172005 70 269 1.7 6.1 0.00 0.00 0.00 65 1020.9
20260506171522 69 269 1.7 5.2 0.00 0.00 0.00 66 1020.9
20260506171007 69 269 0.0 3.5 0.00 0.00 0.00 66 1021.0
20260506170507 68 269 0.0 5.2 0.00 0.00 0.00 65 1021.0
20260506170024 68 269 0.9 5.2 0.00 0.00 0.00 66 1021.0
20260506165508 68 269 0.9 3.5 0.00 0.00 0.00 67 1021.0
20260506165010 68 269 0.0 3.5 0.00 0.00 0.00 68 1021.0
20260506164526 67 269 0.0 3.5 0.00 0.00 0.00 67 1021.0
20260506164014 66 269 0.0 3.5 0.00 0.00 0.00 68 1021.0
20260506163502 65 269 0.0 2.6 0.00 0.00 0.00 71 1021.0
20260506163013 65 269 0.9 2.6 0.00 0.00 0.00 70 1021.0
20260506162507 64 269 0.0 3.5 0.00 0.00 0.00 71 1021.0
20260506162010 64 269 0.0 3.5 0.00 0.00 0.00 72 1020.9
20260506161522 63 269 0.0 3.5 0.00 0.00 0.00 72 1021.0
20260506161011 63 269 0.0 3.5 0.00 0.00 0.00 73 1021.0
20260506160502 63 269 0.9 3.5 0.00 0.00 0.00 73 1021.0
20260506160004 62 269 0.0 3.5 0.00 0.00 0.00 74 1021.0
20260506155503 62 269 0.0 3.5 0.00 0.00 0.00 74 1021.1
20260506155003 62 269 0.9 3.5 0.00 0.00 0.00 74 1021.0
20260506154508 61 269 0.0 3.5 0.00 0.00 0.00 75 1021.0
20260506154003 61 269 0.9 3.5 0.00 0.00 0.00 75 1021.0
20260506153503 61 269 0.9 3.5 0.00 0.00 0.00 76 1021.0
20260506153011 60 269 0.9 3.5 0.00 0.00 0.00 76 1021.0
20260506152503 60 269 0.9 3.5 0.00 0.00 0.00 76 1021.0
20260506152004 60 269 0.9 3.5 0.00 0.00 0.00 76 1020.9
20260506151516 60 269 0.9 3.5 0.00 0.00 0.00 76 1020.9
20260506151003 60 269 0.0 5.2 0.00 0.00 0.00 77 1020.9
20260506150505 59 269 0.9 5.2 0.00 0.00 0.00 77 1020.9
20260506150020 59 269 0.9 3.5 0.00 0.00 0.00 77 1020.9
20260506145504 59 269 0.0 3.5 0.00 0.00 0.00 77 1020.8
20260506145006 58 269 0.0 3.5 0.00 0.00 0.00 77 1020.8
20260506144509 58 269 0.0 3.5 0.00 0.00 0.00 77 1020.8
20260506144003 58 269 0.9 3.5 0.00 0.00 0.00 77 1020.7
20260506143504 58 269 0.0 6.1 0.00 0.00 0.00 77 1020.7
20260506143010 57 269 0.9 6.1 0.00 0.00 0.00 77 1020.7
20260506142504 57 269 0.0 3.5 0.00 0.00 0.00 78 1020.6
20260506142004 57 269 0.9 6.1 0.00 0.00 0.00 78 1020.6
20260506141512 57 269 0.0 6.1 0.00 0.00 0.00 77 1020.6
20260506141006 57 269 0.9 5.2 0.00 0.00 0.00 77 1020.6
20260506140504 57 269 0.0 2.6 0.00 0.00 0.00 77 1020.5
20260506140028 57 269 0.0 2.6 0.00 0.00 0.00 77 1020.4
20260506135503 57 269 0.0 3.5 0.00 0.00 0.00 77 1020.3
20260506135003 56 269 0.0 3.5 0.00 0.00 0.00 78 1020.3
20260506134530 56 269 0.0 0.0 0.00 0.00 0.00 78 1020.2
20260506134007 56 269 0.0 0.0 0.00 0.00 0.00 78 1020.3
20260506133509 56 269 0.0 1.7 0.00 0.00 0.00 78 1020.3
20260506133025 56 269 0.0 3.5 0.00 0.00 0.00 78 1020.2
20260506132502 56 269 0.0 3.5 0.00 0.00 0.00 78 1020.2
20260506132003 56 269 0.0 2.6 0.00 0.00 0.00 78 1020.1
20260506131508 56 269 0.0 3.5 0.00 0.00 0.00 78 1020.1
20260506131003 56 269 0.0 3.5 0.00 0.00 0.00 78 1020.1
20260506130503 56 269 0.9 3.5 0.00 0.00 0.00 78 1020.1
20260506130016 56 269 0.0 3.5 0.00 0.00 0.00 78 1020.0
20260506125506 56 269 0.0 7.0 0.00 0.00 0.00 78 1020.1
20260506125005 56 269 0.9 7.0 0.00 0.00 0.00 78 1020.1
20260506124519 56 269 0.0 6.1 0.00 0.00 0.00 78 1020.0
20260506124005 56 269 0.9 6.1 0.00 0.00 0.00 78 1020.0
20260506123509 56 269 0.9 6.1 0.00 0.00 0.00 78 1020.0
20260506123034 56 269 1.7 5.2 0.00 0.00 0.00 78 1020.0
20260506122510 56 269 0.9 5.2 0.00 0.00 0.00 77 1020.0
20260506122007 56 269 0.0 6.1 0.00 0.00 0.00 78 1020.0
20260506121526 56 269 0.0 6.1 0.00 0.00 0.00 78 1020.0
20260506121002 56 269 0.0 6.1 0.00 0.00 0.00 77 1019.9
20260506120503 56 269 1.7 7.0 0.00 0.00 0.00 78 1019.9
20260506120023 56 269 1.7 7.0 0.00 0.00 0.00 78 1019.9
20260506115504 56 269 0.9 7.8 0.00 0.00 0.00 78 1019.9
20260506115003 56 269 0.9 7.8 0.00 0.00 0.00 78 1019.9
20260506114520 56 269 2.6 7.0 0.00 0.00 0.00 78 1019.8
20260506114007 56 269 2.6 7.8 0.00 0.00 0.00 78 1019.8
20260506113508 56 269 2.6 8.7 0.00 0.00 0.00 78 1019.8
20260506113022 56 269 1.7 8.7 0.00 0.00 0.00 78 1019.8
20260506112508 56 269 1.7 7.8 0.00 0.00 0.00 78 1019.7
20260506112007 56 269 0.9 7.8 0.00 0.00 0.00 78 1019.6
20260506111524 56 269 0.9 5.2 0.00 0.00 0.00 78 1019.6
20260506111008 56 269 0.9 7.0 0.00 0.00 0.00 78 1019.5
20260506110513 56 269 0.9 7.0 0.00 0.00 0.00 78 1019.5
20260506110038 56 269 1.7 7.0 0.00 0.00 0.00 78 1019.5
20260506105508 56 269 1.7 6.1 0.00 0.00 0.00 78 1019.5
20260506105004 56 269 0.9 6.1 0.00 0.00 0.00 78 1019.4
20260506104522 56 269 0.9 6.1 0.00 0.00 0.00 78 1019.3
20260506104003 56 269 0.9 5.2 0.00 0.00 0.00 78 1019.3
20260506103503 56 270 0.9 6.1 0.00 0.00 0.00 78 1019.3
20260506103023 56 269 0.9 6.1 0.00 0.00 0.00 78 1019.3
20260506102509 56 269 0.9 6.1 0.00 0.00 0.00 78 1019.3
20260506102009 56 269 0.0 5.2 0.00 0.00 0.00 78 1019.2
20260506101529 56 269 0.9 5.2 0.00 0.00 0.00 77 1019.2
20260506101007 56 269 0.9 5.2 0.00 0.00 0.00 77 1019.2
20260506100507 56 269 0.0 6.1 0.00 0.00 0.00 77 1019.2
20260506100025 56 269 0.9 7.0 0.00 0.00 0.00 77 1019.2
20260506095506 56 269 1.7 7.0 0.00 0.00 0.00 77 1019.2
20260506095009 56 269 1.7 6.1 0.00 0.00 0.00 78 1019.2
20260506094527 56 269 0.9 7.0 0.00 0.00 0.00 78 1019.2
20260506094008 56 269 2.6 7.0 0.00 0.00 0.00 78 1019.2
20260506093503 56 269 1.7 6.1 0.00 0.00 0.00 78 1019.2
20260506093025 56 269 0.9 7.0 0.00 0.00 0.00 78 1019.3
20260506092503 56 269 0.9 7.0 0.00 0.00 0.00 78 1019.2
20260506092009 56 269 1.7 7.8 0.00 0.00 0.00 77 1019.3
20260506091522 56 269 0.9 7.8 0.00 0.00 0.00 78 1019.3
20260506091012 56 269 3.5 8.7 0.00 0.00 0.00 77 1019.3
20260506090504 57 270 5.2 8.7 0.00 0.00 0.00 77 1019.3
20260506090004 57 271 4.3 8.7 0.00 0.00 0.00 77 1019.4
20260506085506 57 271 2.6 7.8 0.00 0.00 0.00 77 1019.4
20260506085004 57 271 1.7 7.8 0.00 0.00 0.00 77 1019.4
20260506084510 57 271 3.5 7.8 0.00 0.00 0.00 77 1019.4
20260506084004 57 271 3.5 8.7 0.00 0.00 0.00 77 1019.4
20260506083504 57 271 2.6 8.7 0.00 0.00 0.00 77 1019.4
20260506083021 57 271 2.6 7.8 0.00 0.00 0.00 77 1019.4
20260506082506 57 271 2.6 8.7 0.00 0.00 0.00 77 1019.4
20260506082004 57 271 2.6 8.7 0.00 0.01 0.00 77 1019.4
20260506081517 57 272 2.6 7.8 0.00 0.01 0.00 77 1019.4
20260506081007 57 272 2.6 7.8 0.00 0.01 0.00 77 1019.3
20260506080508 57 272 2.6 6.1 0.00 0.01 0.00 77 1019.4
20260506073504 57 272 3.5 8.7 0.00 0.02 0.00 77 1019.1
20260506073012 57 272 1.7 7.8 0.00 0.02 0.00 77 1019.0
20260506072503 57 272 3.5 7.8 0.00 0.02 0.00 77 1019.0
20260506072004 57 272 2.6 7.8 0.00 0.02 0.00 77 1018.9
20260506071518 57 272 3.5 7.0 0.00 0.03 0.00 77 1018.9
20260506071004 57 272 0.9 7.8 0.00 0.04 0.00 77 1018.9
20260506070504 57 272 1.7 7.8 0.00 0.04 0.00 77 1018.8
20260506062504 57 272 0.9 6.1 0.00 0.11 0.05 76 1018.3
20260506062006 57 272 1.7 6.1 0.00 0.11 0.05 76 1018.3
20260506061514 57 272 2.6 6.1 0.00 0.12 0.05 76 1018.4
20260506061004 57 272 1.7 6.1 0.00 0.12 0.05 76 1018.4
20260506060508 57 272 0.0 5.2 0.00 0.12 0.05 77 1018.4
20260506051002 58 272 1.7 7.0 0.00 0.17 0.05 76 1018.1
20260506050505 58 272 0.9 5.2 0.00 0.17 0.05 76 1018.1
20260506045006 58 272 0.9 6.1 0.00 0.18 0.05 76 1017.8
20260506044518 58 272 0.9 6.1 0.00 0.18 0.05 76 1017.7
20260506044004 58 272 0.9 6.1 0.00 0.19 0.05 76 1017.7
20260506043510 58 272 0.9 7.0 0.00 0.19 0.05 76 1017.7
20260506043023 58 272 1.7 7.0 0.00 0.19 0.05 76 1017.5
20260506042509 58 272 1.7 6.1 0.00 0.20 0.05 76 1017.4
20260506042014 58 272 0.0 7.0 0.00 0.20 0.05 76 1017.4
20260506041526 58 272 1.7 7.0 0.00 0.21 0.05 76 1017.4
20260506041018 58 272 1.7 7.8 0.00 0.22 0.05 76 1017.4
20260506040503 58 272 0.9 7.8 0.00 0.24 0.05 76 1017.3
20260506040011 59 272 2.6 7.0 0.00 0.26 0.05 76 1017.3
20260506035503 59 272 0.9 7.0 0.00 0.26 0.05 76 1017.2
20260506035005 59 272 0.9 7.0 0.00 0.27 0.05 76 1017.2
20260506034515 59 272 3.5 8.7 0.00 0.27 0.05 75 1017.0
20260506034005 59 272 4.3 9.6 0.00 0.28 0.05 75 1017.0
20260506033514 59 272 3.5 9.6 0.00 0.28 0.05 75 1016.9
20260506033027 60 272 2.6 7.8 0.00 0.29 0.05 75 1016.8
20260506032510 60 272 1.7 11.3 0.00 0.30 0.05 75 1016.8
20260506032009 60 272 1.7 11.3 0.00 0.30 0.05 74 1016.8
20260506031540 60 272 2.6 11.3 0.00 0.30 0.05 74 1016.7
20260506031006 60 271 3.5 7.8 0.00 0.30 0.05 74 1016.5
20260506030506 61 271 2.6 7.8 0.00 0.30 0.05 74 1016.5
20260506030030 61 271 2.6 8.7 0.00 0.31 0.05 74 1016.4
20260506025510 61 271 3.5 8.7 0.00 0.31 0.05 74 1016.4
20260506025003 61 271 1.7 8.7 0.00 0.31 0.05 73 1016.4
20260506024513 62 271 1.7 8.7 0.00 0.32 0.05 73 1016.3
20260506024004 62 271 1.7 9.6 0.00 0.32 0.05 73 1016.3
20260506023508 62 271 2.6 9.6 0.00 0.32 0.05 73 1016.3
20260506023003 62 264 1.7 8.7 0.00 0.32 0.05 72 1016.2
20260506022502 63 263 0.9 7.8 0.00 0.32 0.05 72 1016.2
20260506022004 63 262 2.6 9.6 0.00 0.32 0.05 72 1015.9
20260506021502 63 262 4.3 9.6 0.00 0.33 0.05 72 1015.9
20260506021002 63 263 5.2 8.7 0.00 0.33 0.05 71 1016.0
20260506020503 64 262 4.3 9.6 0.00 0.33 0.05 71 1016.0
20260506020009 64 262 1.7 10.4 0.00 0.33 0.05 71 1016.1
20260506015503 64 261 4.3 10.4 0.00 0.33 0.05 70 1016.0
20260506015005 64 259 1.7 9.6 0.00 0.33 0.05 71 1016.0
20260506014510 64 259 2.6 9.6 0.00 0.33 0.05 70 1015.9
20260506014002 65 257 4.3 9.6 0.00 0.33 0.05 69 1015.9
20260506013503 65 252 1.7 10.4 0.00 0.33 0.05 69 1015.8
20260506013019 65 252 4.3 10.4 0.00 0.33 0.05 68 1015.8
20260506012504 65 249 2.6 10.4 0.00 0.33 0.05 69 1015.7
20260506012004 65 246 3.5 10.4 0.00 0.33 0.05 69 1015.7
20260506011520 65 244 4.3 11.3 0.00 0.34 0.05 69 1015.6
20260506011002 65 245 4.3 11.3 0.00 0.34 0.05 69 1015.6
20260506010502 66 254 5.2 11.3 0.00 0.34 0.05 68 1015.6
20260506010008 66 257 4.3 10.4 0.00 0.34 0.05 69 1015.5
20260506005501 66 258 4.3 10.4 0.00 0.34 0.05 68 1015.5
20260506005003 66 257 3.5 10.4 0.00 0.34 0.05 69 1015.5
20260506004508 66 257 3.5 9.6 0.00 0.34 0.05 69 1015.5
20260506004003 66 257 3.5 9.6 0.00 0.34 0.05 68 1015.5
20260506003503 66 258 4.3 9.6 0.00 0.34 0.05 68 1015.6
20260506003014 66 259 4.3 9.6 0.00 0.34 0.05 68 1015.6
20260506002503 66 259 4.3 9.6 0.00 0.35 0.05 67 1015.6
20260506002004 66 261 3.5 8.7 0.00 0.35 0.05 68 1015.6
20260506001518 66 262 2.6 8.7 0.00 0.35 0.05 68 1015.5
20260506001008 66 263 1.7 7.8 0.00 0.35 0.05 68 1015.5
20260506000508 66 263 3.5 7.8 0.00 0.35 0.05 68 1015.5
20260506000026 66 264 3.5 12.2 0.00 0.35 0.05 68 1015.4
20260505235503 66 264 4.3 12.2 0.00 0.35 0.05 67 1015.4
20260505235002 66 270 5.2 8.7 0.00 0.35 0.05 67 1015.4
20260505234507 66 274 3.5 7.8 0.00 0.35 0.05 68 1015.4
20260505234004 66 275 2.6 7.8 0.00 0.35 0.05 69 1015.4
20260505233503 66 275 1.7 7.8 0.00 0.35 0.05 70 1015.4
20260505233014 65 275 3.5 7.8 0.00 0.35 0.05 70 1015.4
20260505232506 65 277 1.7 7.8 0.00 0.35 0.05 70 1015.5
20260505232005 65 277 1.7 7.8 0.00 0.35 0.05 70 1015.6
20260505231516 65 277 2.6 7.0 0.00 0.35 0.05 70 1015.6
20260505231004 65 277 2.6 7.8 0.00 0.35 0.05 70 1015.6
20260505230504 65 277 3.5 7.8 0.00 0.35 0.05 70 1015.6
20260505230035 65 277 2.6 7.8 0.00 0.35 0.05 71 1015.6
20260505225508 65 277 0.9 7.0 0.00 0.35 0.05 71 1015.6
20260505225007 64 277 1.7 7.8 0.00 0.35 0.05 72 1015.7
20260505224524 64 277 1.7 7.8 0.00 0.35 0.05 71 1015.7
20260505224010 64 277 0.0 7.0 0.00 0.35 0.05 71 1015.7
20260505223502 64 277 0.9 7.0 0.00 0.35 0.05 72 1015.8
20260505223011 64 277 1.7 7.0 0.00 0.35 0.05 71 1015.8
20260505222503 64 278 2.6 7.0 0.00 0.35 0.05 72 1015.9
20260505222003 64 278 0.9 7.0 0.00 0.35 0.05 71 1015.9
20260505221516 64 278 2.6 7.8 0.00 0.35 0.05 71 1015.9
20260505221004 64 279 3.5 7.8 0.00 0.35 0.05 71 1015.9
20260505220507 64 279 3.5 8.7 0.00 0.35 0.05 70 1016.0
20260505220026 65 279 3.5 8.7 0.00 0.35 0.05 70 1016.0
20260505215507 65 280 1.7 8.7 0.00 0.35 0.05 70 1016.0
20260505215005 65 280 2.6 8.7 0.00 0.35 0.05 69 1016.0
20260505214522 66 285 3.5 8.7 0.00 0.35 0.05 68 1016.0
20260505214008 66 289 3.5 7.0 0.00 0.35 0.05 69 1016.0
20260505213508 66 290 1.7 7.0 0.00 0.35 0.05 67 1016.0
20260505213028 67 290 0.9 6.1 0.00 0.35 0.05 67 1016.0
20260505212511 67 290 0.9 6.1 0.00 0.35 0.05 67 1016.0
20260505212010 67 290 1.7 6.1 0.00 0.35 0.05 68 1016.1
20260505211512 67 290 0.0 4.3 0.00 0.35 0.05 68 1016.0
20260505211004 67 290 0.0 6.1 0.00 0.35 0.05 66 1016.0
20260505210503 67 290 0.9 7.0 0.00 0.35 0.05 67 1016.1
20260505210018 67 290 0.9 7.0 0.00 0.35 0.05 68 1016.1
20260505205508 67 290 2.6 7.0 0.00 0.35 0.05 67 1016.1
20260505205007 67 290 0.9 6.1 0.00 0.35 0.05 68 1016.1
20260505204521 67 290 0.0 4.3 0.00 0.35 0.05 67 1016.2
20260505204010 67 290 0.0 4.3 0.00 0.35 0.05 69 1016.3
20260505203507 66 290 1.7 3.5 0.00 0.35 0.05 71 1016.3
20260505203030 65 290 0.0 3.5 0.00 0.35 0.05 71 1016.3
20260505202512 65 290 0.0 3.5 0.00 0.35 0.05 72 1016.2